Time,TemperatureF,DewpointF,PressureIn,WindDirection,WindDirectionDegrees,WindSpeedMPH,WindSpeedGustMPH,Humidity,HourlyPrecipIn,Conditions,Clouds,dailyrainin,SoftwareType,DateUTC
2013-04-23 00:14:00,47.8,45.0,29.95,West,265,0.0,1.0,91,0.01,,,0.15,weatherlink.com 1.10,2013-04-23 05:14:00,
2013-04-23 00:29:00,47.4,45.0,29.95,North,10,0.0,3.0,92,0.01,,,0.15,weatherlink.com 1.10,2013-04-23 05:29:00,
2013-04-23 00:44:00,47.3,45.0,29.94,NNE,15,1.0,2.0,92,0.02,,,0.16,weatherlink.com 1.10,2013-04-23 05:44:00,
2013-04-23 00:59:00,47.5,46.0,29.94,ESE,112,1.0,3.0,93,0.01,,,0.16,weatherlink.com 1.10,2013-04-23 05:59:00,
2013-04-23 01:14:00,49.2,47.0,29.93,SW,214,4.0,8.0,90,0.01,,,0.16,weatherlink.com 1.10,2013-04-23 06:14:00,
2013-04-23 01:29:00,49.2,47.0,29.93,SSW,213,5.0,7.0,90,0.02,,,0.17,weatherlink.com 1.10,2013-04-23 06:29:00,
2013-04-23 01:44:00,49.3,47.0,29.92,SSW,192,4.0,7.0,91,0.02,,,0.18,weatherlink.com 1.10,2013-04-23 06:44:00,
2013-04-23 01:59:00,49.2,47.0,29.91,SW,227,5.0,7.0,91,0.03,,,0.19,weatherlink.com 1.10,2013-04-23 06:59:00,
2013-04-23 02:14:00,49.0,47.0,29.90,South,190,7.0,7.0,92,0.03,,,0.19,weatherlink.com 1.10,2013-04-23 07:14:00,
2013-04-23 02:29:00,49.1,47.0,29.89,South,178,4.0,7.0,93,0.03,,,0.20,weatherlink.com 1.10,2013-04-23 07:29:00,
2013-04-23 02:44:00,49.3,48.0,29.89,SSE,165,4.0,7.0,94,0.02,,,0.20,weatherlink.com 1.10,2013-04-23 07:44:00,
2013-04-23 02:59:00,49.4,48.0,29.88,SSW,194,7.0,8.0,94,0.01,,,0.20,weatherlink.com 1.10,2013-04-23 07:59:00,
2013-04-23 03:14:00,49.4,48.0,29.87,South,171,7.0,9.0,94,0.01,,,0.20,weatherlink.com 1.10,2013-04-23 08:14:00,
2013-04-23 03:30:00,49.5,48.0,29.87,South,182,2.0,9.0,94,0.01,,,0.21,weatherlink.com 1.10,2013-04-23 08:30:00,
2013-04-23 03:44:00,49.6,48.0,29.87,SSW,198,7.0,11.0,94,0.02,,,0.22,weatherlink.com 1.10,2013-04-23 08:44:00,
2013-04-23 03:59:00,49.6,48.0,29.87,West,263,1.0,11.0,94,0.02,,,0.22,weatherlink.com 1.10,2013-04-23 08:59:00,
2013-04-23 04:14:00,46.1,44.0,29.89,NW,315,4.0,21.0,92,0.02,,,0.22,weatherlink.com 1.10,2013-04-23 09:14:00,
2013-04-23 04:29:00,42.3,40.0,29.89,NW,305,13.0,18.0,91,0.01,,,0.22,weatherlink.com 1.10,2013-04-23 09:29:00,
2013-04-23 04:44:00,41.1,39.0,29.89,West,280,12.0,18.0,92,0.01,,,0.23,weatherlink.com 1.10,2013-04-23 09:44:00,
2013-04-23 05:00:00,40.3,38.0,29.88,East,85,2.0,11.0,92,0.01,,,0.23,weatherlink.com 1.10,2013-04-23 10:00:00,
2013-04-23 05:15:00,39.5,38.0,29.88,ENE,76,3.0,8.0,93,0.01,,,0.23,weatherlink.com 1.10,2013-04-23 10:15:00,
2013-04-23 05:30:00,38.7,37.0,29.88,SE,140,2.0,8.0,93,0.01,,,0.23,weatherlink.com 1.10,2013-04-23 10:30:00,
2013-04-23 05:45:00,38.1,36.0,29.90,South,178,8.0,10.0,93,0.00,,,0.00,weatherlink.com 1.10,2013-04-23 10:45:00,
2013-04-23 06:00:00,37.3,36.0,29.92,SW,226,4.0,13.0,93,0.00,,,0.00,weatherlink.com 1.10,2013-04-23 11:00:00,
2013-04-23 06:15:00,36.7,35.0,29.92,WNW,282,15.0,16.0,94,0.00,,,0.00,weatherlink.com 1.10,2013-04-23 11:15:00,
2013-04-23 06:30:00,36.2,35.0,29.92,NW,309,9.0,15.0,94,0.00,,,0.00,weatherlink.com 1.10,2013-04-23 11:30:00,
2013-04-23 06:45:00,35.9,35.0,29.93,WNW,296,12.0,16.0,95,0.00,,,0.00,weatherlink.com 1.10,2013-04-23 11:45:00,
2013-04-23 07:00:00,35.9,35.0,29.93,SW,225,4.0,11.0,95,0.00,,,0.00,weatherlink.com 1.10,2013-04-23 12:00:00,
2013-04-23 07:15:00,35.9,35.0,29.93,WNW,294,8.0,13.0,95,0.00,,,0.00,weatherlink.com 1.10,2013-04-23 12:15:00,
2013-04-23 07:30:00,36.0,35.0,29.94,NW,309,13.0,18.0,94,0.00,,,0.00,weatherlink.com 1.10,2013-04-23 12:30:00,
2013-04-23 07:45:00,36.2,34.0,29.94,NW,321,15.0,20.0,92,0.00,,,0.00,weatherlink.com 1.10,2013-04-23 12:45:00,
2013-04-23 08:00:00,36.4,34.0,29.95,NW,315,12.0,18.0,90,0.00,,,0.00,weatherlink.com 1.10,2013-04-23 13:00:00,
2013-04-23 08:15:00,36.7,34.0,29.95,NW,315,14.0,17.0,89,0.00,,,0.00,weatherlink.com 1.10,2013-04-23 13:15:00,
2013-04-23 08:30:00,36.8,34.0,29.95,WNW,301,10.0,19.0,88,0.00,,,0.00,weatherlink.com 1.10,2013-04-23 13:30:00,
2013-04-23 08:45:00,36.9,33.0,29.96,NW,326,9.0,18.0,87,0.00,,,0.00,weatherlink.com 1.10,2013-04-23 13:45:00,
2013-04-23 09:00:00,37.1,33.0,29.96,NNW,346,7.0,21.0,86,0.00,,,0.00,weatherlink.com 1.10,2013-04-23 14:00:00,
2013-04-23 09:15:00,37.3,33.0,29.96,NNW,332,13.0,24.0,84,0.00,,,0.00,weatherlink.com 1.10,2013-04-23 14:15:00,
2013-04-23 09:30:00,37.8,34.0,29.95,NW,311,11.0,20.0,85,0.00,,,0.00,weatherlink.com 1.10,2013-04-23 14:30:00,
2013-04-23 09:45:00,37.9,33.0,29.97,NNW,343,9.0,29.0,82,0.00,,,0.00,weatherlink.com 1.10,2013-04-23 14:45:00,
2013-04-23 10:00:00,38.2,33.0,29.98,NNW,338,13.0,21.0,81,0.00,,,0.00,weatherlink.com 1.10,2013-04-23 15:00:00,
2013-04-23 10:15:00,38.2,33.0,29.98,NW,316,15.0,21.0,81,0.00,,,0.00,weatherlink.com 1.10,2013-04-23 15:15:00,
2013-04-23 10:30:00,38.1,33.0,29.98,West,273,7.0,23.0,81,0.00,,,0.00,weatherlink.com 1.10,2013-04-23 15:30:00,
2013-04-23 10:45:00,38.2,32.0,29.99,NNW,332,12.0,22.0,79,0.00,,,0.00,weatherlink.com 1.10,2013-04-23 15:45:00,
2013-04-23 11:00:00,38.6,32.0,29.99,NNW,348,12.0,17.0,78,0.00,,,0.00,weatherlink.com 1.10,2013-04-23 16:00:00,
2013-04-23 11:15:00,39.0,32.0,30.00,NNW,342,17.0,24.0,77,0.00,,,0.00,weatherlink.com 1.10,2013-04-23 16:15:00,
2013-04-23 11:30:00,39.1,32.0,29.99,NW,322,15.0,19.0,76,0.00,,,0.00,weatherlink.com 1.10,2013-04-23 16:30:00,
2013-04-23 11:45:00,39.2,32.0,30.00,North,355,15.0,20.0,76,0.00,,,0.00,weatherlink.com 1.10,2013-04-23 16:45:00,
2013-04-23 12:00:00,39.5,32.0,29.99,NW,324,13.0,19.0,74,0.00,,,0.00,weatherlink.com 1.10,2013-04-23 17:00:00,
2013-04-23 12:15:00,39.6,32.0,30.00,North,5,12.0,21.0,75,0.00,,,0.00,weatherlink.com 1.10,2013-04-23 17:15:00,
2013-04-23 12:30:00,39.8,32.0,30.00,NNE,24,17.0,22.0,75,0.00,,,0.00,weatherlink.com 1.10,2013-04-23 17:30:00,
2013-04-23 12:45:00,39.8,32.0,30.00,North,351,11.0,20.0,73,0.00,,,0.00,weatherlink.com 1.10,2013-04-23 17:45:00,
2013-04-23 13:01:00,40.1,32.0,29.99,NNW,340,11.0,21.0,73,0.00,,,0.00,weatherlink.com 1.10,2013-04-23 18:01:00,
2013-04-23 13:16:00,39.9,32.0,29.98,NNW,339,22.0,24.0,73,0.00,,,0.00,weatherlink.com 1.10,2013-04-23 18:16:00,
2013-04-23 13:31:00,40.2,32.0,29.98,NNW,329,10.0,22.0,72,0.00,,,0.00,weatherlink.com 1.10,2013-04-23 18:31:00,
2013-04-23 13:46:00,40.6,32.0,29.98,NNW,340,12.0,21.0,71,0.00,,,0.00,weatherlink.com 1.10,2013-04-23 18:46:00,
2013-04-23 14:01:00,40.1,32.0,29.98,NNW,333,13.0,24.0,72,0.00,,,0.00,weatherlink.com 1.10,2013-04-23 19:01:00,
2013-04-23 14:16:00,40.1,32.0,29.99,NW,325,17.0,22.0,73,0.00,,,0.00,weatherlink.com 1.10,2013-04-23 19:16:00,
2013-04-23 14:31:00,40.1,32.0,29.99,North,10,6.0,24.0,73,0.00,,,0.00,weatherlink.com 1.10,2013-04-23 19:31:00,
2013-04-23 14:46:00,40.5,32.0,29.99,North,355,19.0,20.0,71,0.00,,,0.00,weatherlink.com 1.10,2013-04-23 19:46:00,
2013-04-23 15:01:00,40.5,31.0,29.99,WNW,299,12.0,22.0,70,0.00,,,0.00,weatherlink.com 1.10,2013-04-23 20:01:00,
2013-04-23 15:17:00,40.7,31.0,29.99,NNW,336,8.0,20.0,69,0.00,,,0.00,weatherlink.com 1.10,2013-04-23 20:17:00,
2013-04-23 15:31:00,40.9,31.0,29.99,NW,313,9.0,18.0,69,0.00,,,0.00,weatherlink.com 1.10,2013-04-23 20:31:00,
2013-04-23 15:46:00,40.7,31.0,29.98,NNW,335,8.0,20.0,69,0.00,,,0.00,weatherlink.com 1.10,2013-04-23 20:46:00,
2013-04-23 16:01:00,40.7,31.0,29.98,NE,54,2.0,17.0,69,0.00,,,0.00,weatherlink.com 1.10,2013-04-23 21:01:00,
2013-04-23 16:16:00,40.7,31.0,29.99,WNW,299,4.0,18.0,68,0.00,,,0.00,weatherlink.com 1.10,2013-04-23 21:16:00,
2013-04-23 16:31:00,40.6,31.0,29.98,NNW,338,12.0,17.0,68,0.00,,,0.00,weatherlink.com 1.10,2013-04-23 21:31:00,
2013-04-23 16:46:00,40.4,31.0,29.99,NNW,331,9.0,21.0,69,0.00,,,0.00,weatherlink.com 1.10,2013-04-23 21:46:00,
2013-04-23 17:01:00,40.5,30.0,30.00,NNW,345,10.0,20.0,67,0.00,,,0.00,weatherlink.com 1.10,2013-04-23 22:01:00,
2013-04-23 17:16:00,40.5,30.0,29.99,NW,321,11.0,19.0,67,0.00,,,0.00,weatherlink.com 1.10,2013-04-23 22:16:00,
2013-04-23 17:31:00,40.5,31.0,29.99,NE,39,2.0,15.0,68,0.00,,,0.00,weatherlink.com 1.10,2013-04-23 22:31:00,
2013-04-23 17:46:00,40.6,30.0,30.00,NNE,17,6.0,19.0,65,0.00,,,0.00,weatherlink.com 1.10,2013-04-23 22:46:00,
2013-04-23 18:01:00,40.5,29.0,29.99,NNW,347,11.0,19.0,65,0.00,,,0.00,weatherlink.com 1.10,2013-04-23 23:01:00,
2013-04-23 18:16:00,40.5,30.0,29.99,SSW,198,2.0,15.0,66,0.00,,,0.00,weatherlink.com 1.10,2013-04-23 23:16:00,
2013-04-23 18:31:00,40.4,30.0,30.00,NNE,15,2.0,15.0,66,0.00,,,0.00,weatherlink.com 1.10,2013-04-23 23:31:00,
2013-04-23 18:46:00,40.3,30.0,30.00,NE,34,9.0,12.0,67,0.00,,,0.00,weatherlink.com 1.10,2013-04-23 23:46:00,
2013-04-23 19:01:00,40.0,30.0,30.00,NNW,329,12.0,17.0,67,0.00,,,0.00,weatherlink.com 1.10,2013-04-24 00:01:00,
2013-04-23 19:16:00,39.8,29.0,30.00,NNW,348,12.0,20.0,66,0.00,,,0.00,weatherlink.com 1.10,2013-04-24 00:16:00,
2013-04-23 19:31:00,39.7,29.0,30.00,NNW,342,3.0,17.0,67,0.00,,,0.00,weatherlink.com 1.10,2013-04-24 00:31:00,
2013-04-23 19:46:00,39.4,29.0,30.00,NW,325,5.0,14.0,67,0.00,,,0.00,weatherlink.com 1.10,2013-04-24 00:46:00,
2013-04-23 20:01:00,38.9,29.0,30.01,NNE,33,4.0,14.0,69,0.00,,,0.00,weatherlink.com 1.10,2013-04-24 01:01:00,
2013-04-23 20:16:00,38.5,29.0,30.02,NNW,340,7.0,13.0,69,0.00,,,0.00,weatherlink.com 1.10,2013-04-24 01:16:00,
2013-04-23 20:31:00,38.1,28.0,30.02,ESE,110,3.0,9.0,68,0.00,,,0.00,weatherlink.com 1.10,2013-04-24 01:31:00,
2013-04-23 20:46:00,37.9,29.0,30.02,NNE,32,2.0,9.0,69,0.00,,,0.00,weatherlink.com 1.10,2013-04-24 01:46:00,
2013-04-23 21:01:00,37.7,29.0,30.02,NNW,343,6.0,10.0,70,0.00,,,0.00,weatherlink.com 1.10,2013-04-24 02:01:00,
2013-04-23 21:31:00,37.2,29.0,30.03,North,5,1.0,7.0,72,0.00,,,0.00,weatherlink.com 1.10,2013-04-24 02:31:00,
2013-04-23 21:46:00,36.8,29.0,30.03,North,10,1.0,7.0,72,0.00,,,0.00,weatherlink.com 1.10,2013-04-24 02:46:00,
2013-04-23 22:01:00,36.5,29.0,30.03,ENE,58,1.0,8.0,73,0.00,,,0.00,weatherlink.com 1.10,2013-04-24 03:01:00,
2013-04-23 22:16:00,36.1,28.0,30.03,North,5,3.0,8.0,73,0.00,,,0.00,weatherlink.com 1.10,2013-04-24 03:16:00,
2013-04-23 22:31:00,35.8,29.0,30.02,NNE,16,1.0,5.0,75,0.00,,,0.00,weatherlink.com 1.10,2013-04-24 03:31:00,
2013-04-23 22:46:00,35.4,29.0,30.03,North,5,1.0,4.0,76,0.00,,,0.00,weatherlink.com 1.10,2013-04-24 03:46:00,
2013-04-23 23:01:00,34.8,28.0,30.03,North,360,0.0,2.0,77,0.00,,,0.00,weatherlink.com 1.10,2013-04-24 04:01:00,
2013-04-23 23:16:00,34.4,28.0,30.03,North,360,0.0,2.0,78,0.00,,,0.00,weatherlink.com 1.10,2013-04-24 04:16:00,
2013-04-23 23:31:00,34.2,28.0,30.02,North,360,0.0,2.0,78,0.00,,,0.00,weatherlink.com 1.10,2013-04-24 04:31:00,
2013-04-23 23:46:00,33.6,28.0,30.02,North,360,0.0,1.0,80,0.00,,,0.00,weatherlink.com 1.10,2013-04-24 04:46:00,